User: anonymous   Login
Location: Sandbanks Provincial Park
(47.6073°N, 57.6428°W)
Time: 00:31:07
(UTC-03:-30)
Language:

Cosmos 2034 Rocket - Orbit

View from above orbital plane
View from above orbital plane
View from above satellite
View from above satellite

Ground track
Ground track

The orbit data is extracted from the following two-line orbital elements,

1 20150U 89059B   15056.22805883  .00000030  00000-0  14589-4 0  9996
2 20150 082.9434 359.4312 0030268 115.4710 011.8199 13.75595183284498
Epoch (UTC): 25 February 2015 05:28:24
Eccentricity: 0.0030268
inclination: 82.9434°
perigee height: 957 km
apogee height: 1002 km
right ascension of ascending node: 359.4312°
argument of perigee: 115.4710°
revolutions per day: 13.75595183
mean anomaly at epoch: 11.8199°
orbit number at epoch: 28449

The dashed part of the orbit path shows where the satellite is in the earth's shadow,  

DLR